Tracking 29892 objects as of 21-Nov-2024
HD Live streaming from Space Station
objects crossing your sky now

ONEWEB-0593

Track ONEWEB-0593 now!
10-day predictions
ONEWEB-0593 is classified as:


NORAD ID: 54659
Int'l Code: 2022-166T
Perigee: 1,183.4 km
Apogee: 1,186.4 km
Inclination: 87.9 °
Period: 108.9 minutes
Semi major axis: 7555 km
RCS: Unknown
Launch date: December 8, 2022
Source: United Kingdom (UK)
Launch site: AIR FORCE EASTERN TEST RANGE (AFETR)
Your satellite tracking list
Your tracking list is empty




NASA's NSSDC Master Catalog

Two Line Element Set (TLE):
1 54659U 22166T   24325.02674466  .00000104  00000-0  22061-3 0  9996
2 54659  87.9314 358.3579 0002014 100.8690 259.2671 13.21827249 95694
Source of the keplerian elements: AFSPC